Wind_Speed
47 47 45 44 45 44 43 42 42 40 38 37 39 39 39 39 40 41 41 42 43 44 45 46 47 49 49 49 49 48 48 49 50 51 51 51 51 51
47 46 43 42 44 43 42 42 40 38 38 37 38 38 39 39 40 41 42 42 42 43 45 46 47 47 47 48 48 47 48 49 50 51 50 51 51 50
47 45 43 42 43 42 42 40 39 39 39 38 38 39 39 39 40 40 40 41 42 44 45 46 46 46 47 47 47 47 48 49 50 51 51 51 51 50
46 46 44 42 42 41 40 39 38 39 39 38 38 39 39 39 38 39 40 40 42 44 44 45 46 45 45 45 46 47 48 49 50 51 50 50 49 49
45 45 44 42 41 40 39 38 38 39 39 39 38 38 39 38 37 38 39 40 42 42 43 44 43 43 44 44 45 47 48 49 50 50 49 48 48 48
44 44 43 42 40 39 38 38 38 39 39 38 37 38 38 37 37 37 39 39 40 41 42 42 41 42 43 44 46 47 48 49 49 49 48 48 48 48
42 42 42 42 40 39 39 38 38 37 37 37 37 37 36 35 36 37 38 38 39 40 40 40 40 42 42 44 45 46 47 47 49 49 48 48 48 47
42 42 41 40 40 41 40 38 38 38 37 37 38 37 35 36 36 37 37 37 37 38 39 39 40 41 42 44 44 45 46 47 48 49 48 47 47 46
43 42 41 39 40 40 38 37 36 36 36 37 36 35 35 35 36 36 35 36 36 37 38 39 40 41 42 43 44 45 46 47 48 48 47 46 44 43
41 42 40 39 39 39 38 37 36 37 36 36 36 35 35 34 34 34 34 35 36 36 37 38 39 40 41 42 43 44 46 47 48 48 46 44 42 41
40 40 39 38 38 38 37 36 36 35 34 35 36 36 34 34 34 34 34 34 35 36 37 37 38 39 40 42 43 44 45 47 47 46 44 42 41 41
39 40 40 38 37 37 37 36 35 34 34 35 34 34 34 34 33 33 33 33 34 35 35 36 38 39 40 41 41 43 45 45 46 45 43 41 40 39
37 39 39 38 37 36 35 35 34 33 33 32 32 32 33 33 32 31 32 32 33 34 35 36 38 39 39 39 40 42 44 44 43 43 42 39 37 36
35 37 38 37 35 34 34 34 33 32 32 31 30 30 30 30 30 30 30 30 31 33 35 36 37 38 38 38 40 41 42 42 41 40 39 37 35 34
35 35 35 34 34 34 33 32 32 32 31 30 29 29 29 29 29 29 30 30 31 32 34 35 37 37 37 38 39 39 39 39 38 37 36 35 34 32
33 33 34 35 35 34 33 32 32 31 30 29 29 28 28 28 28 29 29 29 30 32 33 35 35 36 37 37 36 36 36 36 36 35 34 33 32 31
32 33 34 34 35 34 33 33 32 30 29 28 28 27 27 27 28 29 29 29 30 31 32 34 34 34 33 33 32 32 33 34 35 34 33 32 32 30
31 31 31 32 32 32 32 32 31 31 30 29 28 26 26 27 28 29 28 28 30 30 31 31 31 30 30 30 30 31 33 33 34 33 32 31 31 30
30 30 30 29 30 30 31 31 30 30 29 29 28 28 28 28 28 28 27 27 29 29 29 28 27 28 28 28 29 30 31 32 33 32 30 30 30 28
29 29 28 28 29 29 29 29 28 28 27 27 27 27 27 27 27 27 26 26 27 26 25 25 25 26 26 26 27 28 29 30 31 31 29 29 28 27
29 29 29 28 28 28 28 27 27 26 25 25 25 25 25 24 23 23 23 23 23 23 23 23 24 24 25 25 25 26 27 28 29 29 28 27 27 26
29 28 28 28 27 27 26 26 26 25 24 23 23 23 22 21 21 21 21 20 20 21 22 22 22 22 23 23 24 24 25 26 28 29 28 26 26 25
28 28 27 27 27 26 25 25 25 24 23 22 22 22 21 20 20 20 19 18 19 19 20 21 21 21 22 23 23 23 23 24 26 28 27 26 25 24
Wind_Direction
240 242 245 249 253 254 256 260 263 265 269 274 278 281 283 286 289 291 294 296 299 302 305 307 310 312 314 316 318 319 320 321 322 323 323 323 324 325
240 240 243 248 252 253 255 258 261 265 269 273 276 279 283 286 288 291 295 298 301 303 305 308 310 312 314 316 318 319 319 320 322 323 323 323 324 324
241 242 244 246 249 251 254 256 259 265 269 271 275 279 283 285 288 292 295 298 301 304 306 308 310 312 314 316 318 319 319 320 322 323 323 324 324 324
241 242 244 245 247 251 254 256 260 264 268 272 276 279 282 285 288 292 295 299 301 304 306 309 311 312 314 317 319 319 320 322 323 324 324 324 324 325
241 242 243 244 246 250 254 257 259 263 268 272 275 279 283 285 288 291 295 299 302 304 307 309 311 312 315 317 319 321 321 323 324 325 324 324 324 325
240 240 242 244 248 251 254 256 259 264 268 272 276 280 283 286 289 292 296 299 302 305 307 309 311 313 315 317 320 321 322 323 325 326 325 325 325 325
240 241 243 245 248 250 254 256 259 264 269 272 276 279 282 286 289 292 295 298 301 304 307 309 312 314 316 318 320 322 323 324 326 326 326 326 326 326
240 242 242 244 248 252 254 257 260 265 269 272 275 277 281 285 288 291 295 298 301 304 306 309 312 314 316 318 321 323 324 325 326 326 326 326 326 327
240 239 241 246 248 250 254 257 260 265 269 272 274 277 281 285 288 291 294 297 299 303 307 310 312 315 316 319 320 323 325 326 327 327 327 327 327 328
239 237 241 246 248 251 254 256 260 265 268 270 273 276 279 284 288 292 294 296 299 302 306 310 312 314 316 319 321 324 325 327 327 328 328 327 328 328
236 237 242 246 249 252 253 256 261 265 267 270 273 276 279 283 288 291 293 296 299 302 306 309 311 314 316 319 322 324 326 327 328 329 329 328 328 329
237 238 241 245 249 251 253 258 261 265 268 270 273 277 279 283 286 289 291 295 298 301 305 308 311 314 316 318 321 324 326 327 329 329 329 329 329 330
240 239 240 244 247 251 254 257 261 265 268 268 271 276 279 281 283 288 291 294 298 301 304 308 312 315 317 319 321 324 327 329 329 330 331 331 331 332
243 242 241 244 245 249 253 256 260 264 265 268 271 276 279 280 282 287 291 294 298 301 304 309 313 315 317 318 322 325 327 329 330 331 333 333 334 335
241 242 242 243 245 247 252 255 258 260 263 266 271 273 276 279 282 286 291 294 297 301 306 310 314 316 317 320 323 324 327 330 331 333 334 335 335 336
239 240 241 243 245 248 250 253 257 259 263 266 269 272 275 278 281 286 291 294 298 301 305 310 313 315 317 320 323 326 330 332 333 334 335 336 336 337
239 240 242 243 246 249 251 253 255 256 260 264 267 271 274 276 281 286 290 293 299 302 305 309 312 316 319 321 324 327 330 333 334 334 334 335 336 337
238 240 242 244 247 249 251 254 254 256 259 262 266 269 272 276 282 286 290 294 297 301 305 309 312 316 320 323 326 328 331 334 335 335 334 334 336 337
237 239 241 243 246 249 251 252 253 256 258 261 264 268 272 278 283 286 289 293 297 301 305 308 312 316 320 324 326 329 333 336 336 336 335 336 337 338
237 239 241 242 244 246 247 249 251 254 256 259 264 268 271 276 281 285 288 292 297 300 304 308 313 318 322 325 326 329 334 338 339 340 339 338 339 340
238 237 237 239 241 243 244 247 250 253 255 258 263 266 270 274 279 283 288 292 296 299 304 309 314 319 322 325 327 331 335 339 343 344 343 342 342 343
236 234 235 238 239 240 241 246 249 251 253 257 261 263 267 272 276 282 287 291 296 302 306 310 314 318 322 326 328 331 334 339 342 345 345 345 345 345
234 232 233 237 238 238 240 246 249 250 252 255 257 261 266 269 275 281 285 289 295 302 308 312 314 317 321 324 328 331 334 337 341 343 345 346 346 347
Height
5673 5678 5683 5688 5691 5695 5697 5700 5702 5703 5704 5704 5704 5703 5701 5699 5697 5695 5691 5688 5684 5679 5674 5668 5662 5655 5648 5640 5633 5625 5617 5609 5600 5592 5583 5574 5566 5557
5662 5668 5672 5677 5681 5685 5688 5690 5692 5694 5695 5696 5695 5694 5692 5691 5689 5686 5683 5679 5675 5670 5665 5659 5653 5646 5639 5632 5624 5617 5609 5601 5592 5584 5575 5566 5557 5549
5652 5657 5663 5667 5671 5675 5678 5680 5683 5684 5686 5686 5686 5685 5684 5682 5680 5678 5674 5671 5666 5661 5656 5651 5644 5638 5631 5624 5616 5609 5601 5593 5584 5575 5566 5558 5549 5541
5642 5647 5652 5657 5662 5666 5668 5671 5673 5675 5676 5677 5677 5676 5675 5673 5671 5669 5666 5662 5658 5653 5648 5642 5636 5629 5623 5616 5609 5601 5593 5584 5576 5567 5559 5551 5542 5533
5632 5637 5643 5648 5652 5656 5659 5662 5664 5666 5666 5667 5668 5667 5666 5664 5662 5660 5657 5653 5649 5644 5639 5633 5627 5621 5615 5608 5601 5593 5585 5577 5568 5559 5550 5542 5534 5525
5622 5628 5633 5639 5643 5647 5650 5653 5655 5656 5658 5658 5658 5658 5657 5655 5653 5651 5648 5645 5641 5636 5630 5625 5619 5613 5607 5601 5593 5585 5577 5568 5559 5551 5542 5534 5526 5517
5612 5618 5624 5629 5634 5637 5641 5644 5645 5647 5648 5649 5649 5649 5648 5646 5645 5642 5639 5636 5632 5627 5622 5617 5612 5606 5600 5592 5585 5577 5569 5560 5552 5543 5535 5527 5518 5510
5603 5609 5614 5620 5624 5628 5632 5634 5636 5638 5639 5640 5640 5640 5639 5638 5636 5633 5631 5628 5624 5620 5615 5610 5604 5598 5592 5585 5577 5570 5561 5553 5544 5536 5527 5519 5511 5503
5594 5600 5606 5611 5615 5618 5622 5625 5627 5628 5630 5631 5631 5631 5630 5629 5627 5625 5622 5618 5615 5611 5606 5602 5596 5591 5584 5577 5570 5562 5554 5546 5537 5529 5520 5512 5504 5496
5586 5592 5597 5602 5605 5609 5612 5615 5618 5620 5621 5621 5622 5622 5620 5619 5617 5616 5613 5609 5606 5603 5599 5594 5589 5583 5577 5570 5563 5555 5547 5539 5531 5522 5513 5505 5497 5490
5577 5583 5587 5592 5596 5599 5603 5606 5609 5610 5611 5612 5612 5612 5611 5610 5609 5607 5604 5601 5598 5595 5591 5587 5582 5576 5569 5563 5556 5548 5540 5532 5524 5515 5507 5499 5491 5484
5568 5573 5578 5583 5587 5590 5593 5596 5599 5601 5602 5603 5603 5603 5602 5601 5600 5598 5596 5593 5590 5587 5584 5580 5575 5569 5563 5556 5549 5541 5533 5525 5517 5508 5500 5493 5485 5478
5558 5564 5569 5573 5577 5581 5584 5587 5590 5592 5593 5593 5594 5594 5593 5593 5592 5590 5588 5585 5583 5580 5576 5572 5567 5561 5555 5548 5542 5535 5527 5519 5510 5502 5495 5487 5480 5474
5549 5555 5559 5564 5568 5571 5575 5578 5580 5582 5583 5584 5585 5585 5585 5584 5583 5582 5580 5578 5575 5573 5569 5564 5560 5554 5548 5542 5535 5528 5520 5513 5504 5497 5490 5483 5476 5470
5541 5545 5550 5554 5558 5562 5565 5568 5570 5573 5574 5576 5576 5577 5577 5576 5575 5574 5572 5570 5568 5565 5561 5557 5552 5547 5541 5535 5528 5522 5515 5507 5500 5492 5485 5479 5472 5466
5531 5536 5540 5544 5549 5553 5556 5559 5561 5564 5566 5567 5568 5568 5568 5568 5567 5566 5564 5563 5560 5557 5553 5549 5545 5540 5534 5528 5522 5515 5509 5502 5495 5488 5481 5475 5469 5463
5522 5527 5531 5536 5540 5544 5547 5550 5553 5555 5557 5558 5559 5560 5560 5560 5559 5558 5556 5555 5552 5549 5546 5542 5537 5533 5527 5522 5516 5511 5505 5498 5491 5484 5478 5471 5465 5460
5513 5518 5523 5527 5531 5535 5538 5541 5544 5547 5549 5550 5551 5552 5552 5552 5551 5550 5549 5547 5545 5542 5539 5535 5531 5526 5522 5516 5512 5506 5500 5494 5487 5481 5474 5468 5462 5457
5505 5510 5515 5519 5523 5526 5530 5533 5536 5539 5540 5542 5543 5544 5544 5544 5544 5543 5541 5539 5537 5535 5532 5529 5525 5521 5517 5512 5507 5501 5496 5489 5483 5477 5471 5465 5459 5454
5497 5502 5506 5511 5514 5518 5522 5525 5528 5530 5532 5533 5535 5536 5536 5537 5536 5535 5534 5532 5530 5528 5525 5523 5519 5516 5512 5507 5502 5497 5492 5486 5479 5473 5467 5462 5456 5451
5489 5494 5498 5503 5507 5510 5514 5517 5519 5522 5524 5526 5527 5528 5529 5529 5529 5528 5527 5526 5524 5522 5520 5517 5514 5511 5506 5502 5498 5493 5488 5483 5477 5471 5465 5459 5454 5449
5482 5486 5490 5495 5499 5503 5506 5509 5512 5514 5516 5518 5520 5521 5522 5522 5522 5522 5521 5520 5518 5517 5514 5512 5509 5506 5502 5498 5494 5489 5485 5480 5474 5468 5463 5458 5453 5447
5474 5479 5483 5487 5491 5495 5499 5502 5505 5507 5510 5512 5513 5514 5516 5516 5516 5516 5515 5514 5513 5511 5509 5507 5504 5501 5498 5494 5490 5486 5481 5477 5471 5466 5461 5456 5451 5446